Farmington, MO

8:18 PM CST on December 15, 2019 (GMT -0600)
Farmington Regional

Weather History for KFAM - October, 2019

Change the Weather History Date:

Wednesday, October 2, 2019

  Actual Average Record
Temperature  
Mean Temperature 80 °F -  
Max Temperature 93 °F 71 °F 93 °F (2019)
Min Temperature 68 °F 47 °F 35 °F (2011)
Cooling Degree Days 16    
Growing Degree Days 30 (Base 50)    
Moisture  
Dew Point 66 °F    
Average Humidity 64    
Maximum Humidity 90    
Minimum Humidity 39    
Precipitation  
Precipitation 0.00 in - - ()
Sea Level Pressure  
Sea Level Pressure 29.98 in    
Wind  
Wind Speed 6 mph (SSW)    
Max Wind Speed 13 mph    
Max Gust Speed -    
Visibility 10 miles    
Events      
Averages and records for this station are not official NWS values.
T = Trace of Precipitation, MM = Missing Value Source: NWS Daily Summary

Daily Weather History Graph

Daily Weather History Graph

Search for Another Location

Airport or City:

Astronomy

Oct. 02, 2019 Rise Set
Actual Time 6:58 AM CDT 6:43 PM CDT
Civil Twilight 6:31 AM CDT 7:09 PM CDT
Nautical Twilight 6:01 AM CDT 7:40 PM CDT
Astronomical Twilight 5:30 AM CDT 8:10 PM CDT
Moon 11:19 AM CDT (10/2) 9:42 PM CDT (10/2)
Length of Visible Light 12h 37m
Length of Day
11h 45m
Waxing Crescent, 20% of the Moon is Illuminated
Oct 2
Waxing Crescent
Oct 5
First Quarter
Oct 13
Full
Oct 21
Last Quarter
Oct 27
New

Hourly Weather History & Observations

Time (CDT) Temp. Heat Index Dew Point Humidity Pressure Visibility Wind Dir Wind Speed Gust Speed Precip Events Conditions
12:56 AM 75.9 °F - 66.9 °F 74% 29.98 in 10.0 mi SSW 8.1 mph - N/A   Clear
2:56 AM 73.0 °F - 66.0 °F 79% 29.98 in 10.0 mi SSW 5.8 mph - N/A   Clear
3:56 AM 73.0 °F - 66.0 °F 79% 29.97 in 10.0 mi SSW 8.1 mph - N/A   Clear
4:56 AM 71.1 °F - 66.0 °F 84% 29.99 in 10.0 mi Calm Calm - N/A   Clear
5:56 AM 68.0 °F - 64.9 °F 90% 30.00 in 10.0 mi Calm Calm - N/A   Clear
6:56 AM 69.1 °F - 64.9 °F 87% 30.01 in 10.0 mi Calm Calm - N/A   Clear
7:56 AM 72.0 °F - 66.9 °F 84% 30.02 in 10.0 mi Calm Calm - N/A   Clear
8:56 AM 77.0 °F - 68.0 °F 74% 30.03 in 10.0 mi SSE 4.6 mph - N/A   Clear
9:56 AM 86.0 °F 88.2 °F 66.0 °F 51% 30.04 in 10.0 mi WSW 12.7 mph - N/A   Clear
10:56 AM 88.0 °F 90.7 °F 66.9 °F 49% 30.03 in 10.0 mi West 9.2 mph - N/A   Clear
11:56 AM 90.0 °F 92.4 °F 66.0 °F 45% 30.02 in 10.0 mi NW 5.8 mph - N/A   Clear
12:56 PM 91.0 °F 93.0 °F 64.9 °F 42% 29.99 in 10.0 mi West 4.6 mph - N/A   Scattered Clouds
1:56 PM 93.0 °F 95.0 °F 64.9 °F 39% 29.97 in 10.0 mi SSW 6.9 mph - N/A   Scattered Clouds
2:56 PM 91.9 °F 94.5 °F 66.0 °F 42% 29.96 in 10.0 mi SSW 10.4 mph - N/A   Partly Cloudy
3:56 PM 91.9 °F 94.5 °F 66.0 °F 42% 29.94 in 10.0 mi South 10.4 mph - N/A   Partly Cloudy
4:56 PM 91.0 °F 93.8 °F 66.0 °F 44% 29.95 in 10.0 mi SSW 11.5 mph - N/A   Partly Cloudy
5:56 PM 89.1 °F 91.3 °F 66.0 °F 46% 29.94 in 10.0 mi SSW 8.1 mph - N/A   Clear
6:56 PM 84.0 °F 86.5 °F 66.9 °F 56% 29.95 in 10.0 mi SSW 4.6 mph - N/A   Clear
7:56 PM 79.0 °F - 66.9 °F 66% 29.95 in 10.0 mi Calm Calm - N/A   Clear
8:56 PM 75.9 °F - 66.9 °F 74% 29.96 in 10.0 mi South 5.8 mph - N/A   Clear
9:56 PM 75.0 °F - 66.0 °F 73% 29.97 in 10.0 mi South 5.8 mph - N/A   Clear
10:56 PM 73.9 °F - 64.0 °F 71% 29.99 in 10.0 mi Calm Calm - N/A   Clear
11:56 PM 72.0 °F - 64.0 °F 76% 29.99 in 10.0 mi Calm Calm - N/A   Clear